Terug naar catalogus

STARLINK-35400

ActiefCommunicatieVLEO
NORAD 66333·PAYLOAD·🇺🇸 United States

Gelanceerd Nov 6, 2025 vanaf Cape Canaveral Space Force Station

Loading…

Volgende Passages (komende 24 uur)

TLE

VersSource: CelesTrak SupGP

Epoch: Sep 15, 2026, 04:16 UTC

1 66333C 25253Q   26258.17826389 -.00029193  00000+0 -10576-2 0  2589
2 66333  43.0002 222.8195 0001347 271.5847 286.4270 15.27587048    17

Volg STARLINK-35400 in realtime met AllMySat

Download on the App Store